M0ZPG Weather Reports


Display with metric or nautical units.
time (UTC)temp
F
wind
direction
speed
MPH
gust
MPH
rain 1hr
in
rain 24hr
in
rain mn
in
humidity
%
barometer
mb
20260504050006 54 239 0.0 1.0 0.00 0.00 0.00 92 1011.2
20260504045405 53 239 0.0 1.0 0.00 0.00 0.00 92 1011.1
20260504044503 53 239 0.0 1.0 0.00 0.00 0.00 92 1011.1
20260504043817 53 0 0.0 0.0 0.00 0.00 0.00 92 1011.1
20260504042705 53 0 0.0 0.0 0.00 0.00 0.00 92 1011.1
20260504042016 53 239 0.0 1.0 0.00 0.00 0.00 92 1011.1
20260504041114 53 239 0.0 1.0 0.00 0.00 0.00 92 1011.1
20260504040005 53 239 0.0 1.0 0.00 0.00 0.00 92 1011.1
20260504035404 53 240 0.0 1.0 0.00 0.00 0.00 92 1011.1
20260504034715 53 239 0.0 1.0 0.00 0.00 0.00 92 1011.1
20260504033818 53 0 0.0 0.0 0.00 0.00 0.00 91 1011.1
20260504032705 53 240 0.0 1.0 0.00 0.00 0.00 91 1011.0
20260504032017 53 239 0.0 2.0 0.00 0.00 0.00 91 1011.1
20260504031114 53 240 0.0 3.0 0.00 0.00 0.00 91 1011.1
20260504030005 53 240 0.0 2.0 0.00 0.00 0.00 91 1011.1
20260504025405 53 239 0.0 3.0 0.00 0.00 0.00 90 1011.1
20260504024505 53 240 0.0 2.0 0.00 0.00 0.00 90 1011.0
20260504023606 54 240 0.0 4.0 0.00 0.00 0.00 90 1011.0
20260504022703 54 237 0.0 4.0 0.00 0.00 0.00 90 1011.0
20260504022013 54 236 0.0 2.0 0.00 0.00 0.00 89 1010.9
20260504020905 54 236 0.0 1.0 0.00 0.00 0.00 89 1010.8
20260504020005 54 236 0.0 2.0 0.00 0.00 0.00 89 1010.7
20260504015403 54 236 0.0 3.0 0.00 0.00 0.00 89 1010.8
20260504014503 54 237 0.0 3.0 0.00 0.00 0.00 88 1010.7
20260504013606 54 221 0.0 5.0 0.00 0.00 0.00 88 1010.8
20260504012703 54 189 0.0 4.0 0.00 0.00 0.00 87 1010.7
20260504011806 55 251 0.0 3.0 0.00 0.00 0.00 87 1010.7
20260504010903 55 224 1.0 6.0 0.00 0.00 0.00 87 1010.8
20260504010005 55 189 0.0 3.0 0.00 0.00 0.00 86 1010.8
20260504005405 55 210 0.0 3.0 0.00 0.00 0.00 86 1010.8
20260504004505 55 249 0.0 4.0 0.00 0.00 0.00 86 1010.8
20260504003605 55 252 0.0 1.0 0.00 0.00 0.00 86 1010.6
20260504002704 55 252 0.0 3.0 0.00 0.00 0.00 86 1010.6
20260504001804 56 259 0.0 2.0 0.00 0.00 0.00 85 1010.6
20260504001117 56 266 0.0 2.0 0.00 0.00 0.00 85 1010.4
20260504000003 56 231 0.0 4.0 0.00 0.00 0.00 84 1010.4
20260503235405 56 194 0.0 2.0 0.00 0.00 0.00 84 1010.3
20260503234504 56 194 0.0 2.0 0.00 0.00 0.00 84 1010.4
20260503233603 56 197 0.0 3.0 0.00 0.00 0.00 84 1010.4
20260503232705 56 234 0.0 2.0 0.00 0.00 0.00 84 1010.3
20260503231805 57 231 1.0 4.0 0.00 0.00 0.00 83 1010.3
20260503230903 57 180 1.0 4.0 0.00 0.01 0.00 83 1010.3
20260503230005 57 215 1.0 4.0 0.00 0.01 0.00 83 1010.3
20260503225403 57 204 1.0 3.0 0.00 0.01 0.01 83 1010.3
20260503224503 57 208 0.0 3.0 0.00 0.01 0.01 83 1010.3
20260503223603 57 246 0.0 6.0 0.00 0.01 0.01 83 1010.2
20260503222705 57 227 0.0 6.0 0.00 0.01 0.01 83 1010.1
20260503221804 58 237 0.0 4.0 0.00 0.01 0.01 83 1010.2
20260503221113 58 233 1.0 4.0 0.00 0.01 0.01 82 1010.2
20260503220003 58 206 1.0 4.0 0.00 0.01 0.01 82 1010.2
20260503215403 58 189 1.0 6.0 0.00 0.01 0.01 82 1010.1
20260503214504 58 179 1.0 3.0 0.00 0.01 0.01 82 1010.0
20260503213605 58 176 0.0 3.0 0.00 0.01 0.01 81 1010.0
20260503212705 58 175 0.0 2.0 0.00 0.01 0.01 80 1009.9
20260503211805 59 175 0.0 2.0 0.00 0.01 0.01 79 1009.9
20260503210904 59 175 0.0 3.0 0.00 0.01 0.01 78 1009.7
20260503210006 60 174 0.0 3.0 0.00 0.01 0.01 77 1009.6
20260503205405 60 173 0.0 3.0 0.00 0.01 0.01 77 1009.5
20260503204503 60 170 0.0 2.0 0.00 0.01 0.01 76 1009.5
20260503203817 60 169 0.0 2.0 0.00 0.01 0.01 75 1009.5
20260503202703 60 187 1.0 4.0 0.00 0.01 0.01 74 1009.3
20260503201806 61 238 0.0 3.0 0.00 0.01 0.01 72 1009.2
20260503200905 61 238 0.0 2.0 0.00 0.01 0.01 71 1009.1
20260503200005 61 238 0.0 1.0 0.00 0.01 0.01 71 1008.9
20260503195403 61 218 0.0 1.0 0.00 0.01 0.01 71 1008.9
20260503194504 62 211 0.0 2.0 0.00 0.01 0.01 70 1008.8
20260503193608 62 211 0.0 3.0 0.00 0.01 0.01 70 1008.8
20260503192705 62 211 0.0 1.0 0.00 0.01 0.01 69 1008.8
20260503191805 62 211 0.0 1.0 0.00 0.01 0.01 69 1008.7
20260503190908 63 211 0.0 3.0 0.00 0.01 0.01 69 1008.5
20260503190003 63 224 0.0 3.0 0.00 0.01 0.01 69 1008.4
20260503185619 63 226 0.0 3.0 0.00 0.01 0.01 69 1008.4
20260503184716 63 226 0.0 3.0 0.00 0.01 0.01 68 1008.4
20260503183605 63 215 0.0 2.0 0.00 0.01 0.01 68 1008.4
20260503182915 64 201 0.0 1.0 0.00 0.01 0.01 67 1008.1
20260503181805 64 201 0.0 2.0 0.00 0.01 0.01 65 1008.1
20260503180905 64 200 0.0 1.0 0.00 0.01 0.01 65 1008.1
20260503180217 64 200 0.0 2.0 0.00 0.01 0.01 65 1008.1
20260503175403 65 197 0.0 2.0 0.00 0.01 0.01 64 1008.1
20260503174505 65 197 0.0 2.0 0.00 0.01 0.01 65 1008.1
20260503173814 65 198 0.0 2.0 0.00 0.01 0.01 64 1008.1
20260503172705 65 205 1.0 3.0 0.00 0.01 0.01 64 1008.1
20260503171803 65 214 1.0 2.0 0.00 0.01 0.01 65 1008.1
20260503170906 66 263 0.0 4.0 0.00 0.01 0.01 65 1008.1
20260503150903 69 270 1.0 4.0 0.00 0.02 0.01 61 1008.2
20260503150214 68 286 1.0 4.0 0.00 0.02 0.01 62 1008.1
20260503131113 68 231 2.0 9.0 0.00 0.02 0.01 63 1008.7
20260503110217 64 192 1.0 6.0 0.00 0.02 0.01 70 1008.8
20260503080903 61 248 1.0 4.0 0.00 0.02 0.01 76 1008.8
20260503072703 58 244 1.0 6.0 0.00 0.02 0.01 82 1008.8
20260503071805 57 231 0.0 2.0 0.00 0.02 0.01 83 1008.8
20260503070905 57 229 0.0 1.0 0.00 0.02 0.01 84 1008.8